Weather History for KIGM - June, 2013

Change the Weather History Date:

Friday, June 28, 2013

  Actual Average Record
Temperature  
Mean Temperature 90 °F 81 °F  
Max Temperature 110 °F 96 °F 110 °F (2013)
Min Temperature 69 °F 67 °F 44 °F (1934)
Degree Days  
Heating Degree Days 0 0  
Month to date heating degree days 0 0  
Since 1 June heating degree days 0 0  
Since 1 July heating degree days 2899 3100  
Cooling Degree Days 25 16  
Month to date cooling degree days 443 352  
Year to date cooling degree days 665 550  
Since 1 June cooling degree days 443 352  
Growing Degree Days 39 (Base 50)    
Moisture  
Dew Point 36 °F    
Average Humidity 18    
Maximum Humidity 28    
Minimum Humidity 7    
Precipitation  
Precipitation 0.01 in 0.01 in 1.00 in (1912)
Month to date precipitation 0.01 0.07  
Year to date precipitation 1.19 3.53  
Sea Level Pressure  
Sea Level Pressure 29.81 in    
Wind  
Wind Speed 7 mph (SSE)    
Max Wind Speed 36 mph    
Max Gust Speed 44 mph    
Visibility 10 miles    
Events Rain , Thunderstorm    
T = Trace of Precipitation, MM = Missing Value Source: NWS Daily Summary

Daily Weather History Graph

Daily Weather History Graph

Search for Another Location

Airport or City:

Trip Planner

Search our weather history database for the weather conditions in past years. The results will help you decide how hot, cold, wet, or windy it might be!

Date:

Astronomy

Jun. 28, 2013 Rise Set
Actual Time 5:23 AM MST 7:54 PM MST
Civil Twilight 4:53 AM MST 8:24 PM MST
Nautical Twilight 4:16 AM MST 9:01 PM MST
Astronomical Twilight 3:36 AM MST 9:41 PM MST
Moon 11:41 PM MST (6/28) 11:21 AM MST (6/28)
Length of Visible Light 15h 30m
Length of Day
14h 30m
Waning Gibbous, 65% of the Moon is Illuminated
Jun 28
Waning Gibbous
Jun 29
Last Quarter
Jul 8
New
Jul 15
First Quarter
Jul 22
Full

Hourly Weather History & Observations

Time (MST) Temp. Heat Index Dew Point Humidity Pressure Visibility Wind Dir Wind Speed Gust Speed Precip Events Conditions
12:51 AM 78.1 °F - 30.0 °F 17% 29.85 in 10.0 mi Calm Calm - N/A   Clear
1:51 AM 78.1 °F - 30.9 °F 18% 29.84 in 10.0 mi South 10.4 mph - N/A   Clear
2:51 AM 78.1 °F - 34.0 °F 20% 29.83 in 10.0 mi South 10.4 mph - N/A   Clear
3:51 AM 78.1 °F - 37.0 °F 23% 29.83 in 10.0 mi Calm Calm - N/A   Clear
4:51 AM 75.9 °F - 37.0 °F 24% 29.83 in 10.0 mi Calm Calm - N/A   Clear
5:51 AM 70.0 °F - 36.0 °F 29% 29.85 in 10.0 mi Calm Calm - N/A   Clear
6:51 AM 81.0 °F - 37.9 °F 21% 29.85 in 10.0 mi Calm Calm - N/A   Clear
7:51 AM 88.0 °F - 37.9 °F 17% 29.85 in 10.0 mi Calm Calm - N/A   Clear
8:51 AM 93.9 °F - 37.9 °F 14% 29.85 in 10.0 mi Calm Calm - N/A   Clear
9:51 AM 98.1 °F - 35.1 °F 11% 29.84 in 10.0 mi North 5.8 mph - N/A   Clear
10:51 AM 102.0 °F - 34.0 °F 9% 29.83 in 10.0 mi NW 4.6 mph - N/A   Clear
11:51 AM 104.0 °F - 33.1 °F 9% 29.80 in 10.0 mi SW 3.5 mph - N/A   Clear
12:51 PM 106.0 °F - 32.0 °F 8% 29.79 in 10.0 mi Variable 3.5 mph - N/A   Clear
1:51 PM 109.9 °F - 33.1 °F 7% 29.75 in 10.0 mi WSW 16.1 mph - N/A   Clear
2:51 PM 109.0 °F - 35.1 °F 8% 29.72 in 10.0 mi SW 11.5 mph 23.0 mph N/A   Clear
3:51 PM 108.0 °F - 33.1 °F 8% 29.70 in 10.0 mi SSW 9.2 mph 21.9 mph N/A   Clear
4:51 PM 108.0 °F - 35.1 °F 8% 29.70 in 10.0 mi WSW 12.7 mph - N/A   Clear
5:42 PM 104.0 °F - 33.8 °F 9% 29.95 in 10.0 mi ESE 26.5 mph 35.7 mph N/A   Squalls
5:51 PM 104.0 °F - 33.1 °F 9% 29.73 in 10.0 mi East 16.1 mph - N/A   Clear
5:55 PM 104.0 °F - 33.8 °F 9% 29.97 in 10.0 mi East 13.8 mph - N/A   Clear
6:32 PM 102.2 °F - 33.8 °F 9% 29.98 in 10.0 mi East 24.2 mph - N/A Thunderstorm Clear
6:48 PM 100.4 °F - 35.6 °F 11% 29.98 in 6.0 mi East 34.5 mph 41.4 mph N/A Thunderstorm Haze
6:51 PM 99.0 °F - 37.0 °F 12% 29.74 in 4.0 mi ESE 34.5 mph 43.7 mph N/A Thunderstorm Haze
7:05 PM 86.0 °F 84.2 °F 53.6 °F 33% 29.99 in 5.0 mi East 32.2 mph 41.4 mph 0.01 in Rain Light Rain
7:51 PM 93.0 °F - 45.0 °F 19% 29.73 in 10.0 mi East 16.1 mph 25.3 mph 0.01 in   Clear
8:29 PM 96.8 °F - 35.6 °F 12% 29.97 in 9.0 mi NNE 19.6 mph 32.2 mph N/A   Clear
8:51 PM 98.1 °F - 36.0 °F 11% 29.70 in 10.0 mi NNE 6.9 mph - N/A   Clear
9:51 PM 91.9 °F - 42.1 °F 18% 29.71 in 10.0 mi SW 3.5 mph - N/A   Clear
10:51 PM 89.1 °F - 37.0 °F 16% 29.71 in 10.0 mi SSW 5.8 mph - N/A   Clear
11:51 PM 88.0 °F - 39.0 °F 18% 29.71 in 10.0 mi SSW 5.8 mph - N/A   Clear